Location: Unspecified
(29.9680°N, 0.0000°E)
Time: 03:43:47
(UTC+00:00)

A-11 Canister half - Pass Details

Date: 19 June 2019
Orbit: 1526 x 1683 km, 47.3° (Epoch: 19 July)

Event Time Altitude Azimuth Distance (km) Brightness Sun altitude
Rises 12:10:05 0° 308° (NW) 4,680 11.5 83.2°
Reaches altitude 10° 12:13:06 10° 308° (NW) 3,703 11.1 82.9°
Maximum altitude 12:22:26 80° 223° (SW) 1,578 13.0 81.9°
Drops below altitude 10° 12:32:02 10° 138° (SE) 3,791 11.2 80.5°
Sets 12:35:09 0° 137° (SE) 4,796 11.6 80.0°
